| time (UTC) | temp C | wind direction | speed KPH | gust KPH | rain 1hr cm | rain 24hr cm | rain mn cm | humidity % | barometer mb |
| 20260902162109 | 34 | 40 | 1.6 | 6.4 | 0.00 | 0.00 | 0.00 | 47 | 1018.1 |
| 20260902161605 | 34 | 71 | 6.4 | 9.7 | 0.00 | 0.00 | 0.00 | 48 | 1018.1 |
| 20260902161101 | 35 | 359 | 0.0 | 6.4 | 0.00 | 0.00 | 0.00 | 47 | 1018.1 |
| 20260902160556 | 34 | 216 | 0.0 | 4.8 | 0.00 | 0.00 | 0.00 | 48 | 1017.9 |
| 20260902160051 | 34 | 267 | 3.2 | 6.4 | 0.00 | 0.00 | 0.00 | 48 | 1018.0 |
| 20260902155544 | 34 | 263 | 4.8 | 9.7 | 0.00 | 0.00 | 0.00 | 49 | 1018.1 |
| 20260902155043 | 33 | 179 | 3.2 | 4.8 | 0.00 | 0.00 | 0.00 | 50 | 1018.2 |
| 20260902154539 | 33 | 202 | 3.2 | 11.3 | 0.00 | 0.00 | 0.00 | 51 | 1017.9 |
| 20260902154039 | 33 | 167 | 3.2 | 6.4 | 0.00 | 0.00 | 0.00 | 51 | 1018.1 |
| 20260902153537 | 33 | 197 | 4.8 | 11.3 | 0.00 | 0.00 | 0.00 | 50 | 1018.2 |
| 20260902153033 | 32 | 233 | 6.4 | 9.7 | 0.00 | 0.00 | 0.00 | 52 | 1018.2 |
| 20260902152529 | 32 | 175 | 8.0 | 11.3 | 0.00 | 0.00 | 0.00 | 52 | 1018.2 |
| 20260902152024 | 32 | 254 | 1.6 | 12.9 | 0.00 | 0.00 | 0.00 | 53 | 1018.2 |
| 20260902151520 | 32 | 229 | 4.8 | 16.1 | 0.00 | 0.00 | 0.00 | 53 | 1018.2 |
| 20260902151019 | 32 | 230 | 1.6 | 17.7 | 0.00 | 0.00 | 0.00 | 53 | 1018.1 |
| 20260902150515 | 31 | 262 | 6.4 | 12.9 | 0.00 | 0.00 | 0.00 | 54 | 1018.4 |
| 20260902150010 | 32 | 333 | 3.2 | 12.9 | 0.00 | 0.00 | 0.00 | 54 | 1018.2 |
| 20260902145505 | 31 | 312 | 4.8 | 11.3 | 0.00 | 0.00 | 0.00 | 54 | 1018.3 |
| 20260902144959 | 31 | 65 | 3.2 | 11.3 | 0.00 | 0.00 | 0.00 | 55 | 1018.4 |
| 20260902144455 | 31 | 303 | 3.2 | 11.3 | 0.00 | 0.00 | 0.00 | 56 | 1018.3 |
| 20260902143950 | 31 | 274 | 3.2 | 9.7 | 0.00 | 0.00 | 0.00 | 56 | 1018.2 |
| 20260902143446 | 31 | 78 | 1.6 | 11.3 | 0.00 | 0.00 | 0.00 | 56 | 1018.3 |
| 20260902142941 | 30 | 102 | 4.8 | 12.9 | 0.00 | 0.00 | 0.00 | 57 | 1018.3 |
| 20260902142437 | 30 | 232 | 6.4 | 12.9 | 0.00 | 0.00 | 0.00 | 58 | 1018.1 |
| 20260902141932 | 30 | 263 | 3.2 | 20.9 | 0.00 | 0.00 | 0.00 | 59 | 1018.2 |
| 20260902141427 | 30 | 320 | 6.4 | 11.3 | 0.00 | 0.00 | 0.00 | 58 | 1018.1 |
| 20260902140926 | 30 | 31 | 1.6 | 6.4 | 0.00 | 0.00 | 0.00 | 59 | 1018.2 |
| 20260902140421 | 30 | 187 | 1.6 | 9.7 | 0.00 | 0.00 | 0.00 | 59 | 1018.2 |
| 20260902135915 | 30 | 189 | 6.4 | 11.3 | 0.00 | 0.00 | 0.00 | 59 | 1018.4 |
| 20260902135412 | 29 | 36 | 1.6 | 9.7 | 0.00 | 0.00 | 0.00 | 61 | 1018.2 |
| 20260902134910 | 29 | 273 | 4.8 | 9.7 | 0.00 | 0.00 | 0.00 | 61 | 1018.3 |
| 20260902134407 | 28 | 287 | 8.0 | 12.9 | 0.00 | 0.00 | 0.00 | 62 | 1018.1 |
| 20260902133906 | 28 | 262 | 3.2 | 6.4 | 0.00 | 0.00 | 0.00 | 62 | 1018.3 |
| 20260902133401 | 28 | 265 | 1.6 | 3.2 | 0.00 | 0.00 | 0.00 | 62 | 1018.2 |
| 20260902132856 | 28 | 260 | 4.8 | 14.5 | 0.00 | 0.00 | 0.00 | 63 | 1018.3 |
| 20260902132351 | 28 | 145 | 4.8 | 6.4 | 0.00 | 0.00 | 0.00 | 63 | 1018.2 |
| 20260902131847 | 28 | 237 | 1.6 | 11.3 | 0.00 | 0.00 | 0.00 | 64 | 1018.2 |
| 20260902131344 | 27 | 172 | 3.2 | 6.4 | 0.00 | 0.00 | 0.00 | 65 | 1018.2 |
| 20260902130842 | 27 | 274 | 4.8 | 11.3 | 0.00 | 0.00 | 0.00 | 65 | 1018.2 |
| 20260902130338 | 27 | 190 | 4.8 | 6.4 | 0.00 | 0.00 | 0.00 | 65 | 1018.2 |
| 20260902125833 | 27 | 230 | 4.8 | 11.3 | 0.00 | 0.00 | 0.00 | 65 | 1018.2 |
| 20260902125329 | 27 | 342 | 3.2 | 4.8 | 0.00 | 0.00 | 0.00 | 65 | 1017.9 |
| 20260902124825 | 27 | 223 | 1.6 | 9.7 | 0.00 | 0.00 | 0.00 | 65 | 1017.9 |
| 20260902124321 | 27 | 223 | 1.6 | 9.7 | 0.00 | 0.00 | 0.00 | 65 | 1017.9 |
| 20260902123815 | 27 | 242 | 4.8 | 9.7 | 0.00 | 0.00 | 0.00 | 65 | 1017.8 |
| 20260902123312 | 27 | 127 | 1.6 | 12.9 | 0.00 | 0.00 | 0.00 | 66 | 1017.8 |
| 20260902122810 | 27 | 228 | 3.2 | 6.4 | 0.00 | 0.00 | 0.00 | 66 | 1017.8 |
| 20260902122307 | 27 | 211 | 3.2 | 6.4 | 0.00 | 0.00 | 0.00 | 67 | 1017.7 |
| 20260902121806 | 27 | 276 | 0.0 | 3.2 | 0.00 | 0.00 | 0.00 | 67 | 1017.8 |
| 20260902121301 | 27 | 101 | 1.6 | 9.7 | 0.00 | 0.00 | 0.00 | 67 | 1017.6 |
| 20260902120757 | 26 | 62 | 1.6 | 4.8 | 0.00 | 0.00 | 0.00 | 67 | 1017.6 |
| 20260902120253 | 26 | 309 | 1.6 | 3.2 | 0.00 | 0.00 | 0.00 | 68 | 1017.6 |
| 20260902115748 | 26 | 45 | 0.0 | 1.6 | 0.00 | 0.00 | 0.00 | 67 | 1017.5 |
| 20260902115244 | 26 | 46 | 0.0 | 3.2 | 0.00 | 0.00 | 0.00 | 67 | 1017.4 |
| 20260902114740 | 26 | 46 | 0.0 | 3.2 | 0.00 | 0.00 | 0.00 | 67 | 1017.3 |
| 20260902114235 | 26 | 81 | 0.0 | 1.6 | 0.00 | 0.00 | 0.00 | 66 | 1017.4 |
| 20260902113729 | 26 | 182 | 0.0 | 1.6 | 0.00 | 0.00 | 0.00 | 66 | 1017.3 |
| 20260902113225 | 26 | 182 | 0.0 | 1.6 | 0.00 | 0.00 | 0.00 | 66 | 1017.3 |
| 20260902112719 | 26 | 129 | 0.0 | 0.0 | 0.00 | 0.00 | 0.00 | 66 | 1017.3 |
| 20260902112216 | 26 | 129 | 0.0 | 3.2 | 0.00 | 0.00 | 0.00 | 66 | 1017.2 |
| 20260902111711 | 27 | 102 | 0.0 | 0.0 | 0.00 | 0.00 | 0.00 | 65 | 1017.2 |
| 20260902111207 | 27 | 102 | 0.0 | 0.0 | 0.00 | 0.00 | 0.00 | 65 | 1017.2 |
| 20260902110703 | 27 | 102 | 0.0 | 1.6 | 0.00 | 0.00 | 0.00 | 64 | 1017.1 |
| 20260902110159 | 27 | 264 | 0.0 | 0.0 | 0.00 | 0.00 | 0.00 | 64 | 1017.1 |
| 20260902105658 | 27 | 223 | 0.0 | 0.0 | 0.00 | 0.00 | 0.00 | 64 | 1017.1 |
| 20260902105154 | 27 | 298 | 0.0 | 1.6 | 0.00 | 0.00 | 0.00 | 64 | 1017.0 |
| 20260902104649 | 27 | 135 | 0.0 | 1.6 | 0.00 | 0.00 | 0.00 | 63 | 1017.1 |
| 20260902104144 | 27 | 7 | 0.0 | 1.6 | 0.00 | 0.00 | 0.00 | 63 | 1017.3 |
| 20260902103643 | 27 | 7 | 0.0 | 3.2 | 0.00 | 0.00 | 0.00 | 63 | 1017.2 |
| 20260902103139 | 27 | 58 | 0.0 | 1.6 | 0.00 | 0.00 | 0.00 | 63 | 1017.2 |
| 20260902102635 | 27 | 53 | 0.0 | 3.2 | 0.00 | 0.00 | 0.00 | 63 | 1017.1 |
| 20260902102132 | 27 | 53 | 1.6 | 1.6 | 0.00 | 0.00 | 0.00 | 62 | 1017.1 |
| 20260902101627 | 27 | 53 | 0.0 | 0.0 | 0.00 | 0.00 | 0.00 | 62 | 1017.1 |
| 20260902101126 | 28 | 99 | 1.6 | 4.8 | 0.00 | 0.00 | 0.00 | 61 | 1017.0 |
| 20260902100621 | 28 | 270 | 0.0 | 3.2 | 0.00 | 0.00 | 0.00 | 61 | 1016.9 |
| 20260902100116 | 28 | 298 | 0.0 | 1.6 | 0.00 | 0.00 | 0.00 | 62 | 1017.0 |
| 20260902095615 | 28 | 246 | 1.6 | 3.2 | 0.00 | 0.00 | 0.00 | 61 | 1017.0 |
| 20260902095109 | 28 | 312 | 1.6 | 9.7 | 0.00 | 0.00 | 0.00 | 61 | 1016.9 |
| 20260902094604 | 28 | 103 | 1.6 | 4.8 | 0.00 | 0.00 | 0.00 | 61 | 1016.9 |
| 20260902094101 | 28 | 244 | 1.6 | 6.4 | 0.00 | 0.00 | 0.00 | 61 | 1017.0 |
| 20260902093559 | 28 | 279 | 0.0 | 3.2 | 0.00 | 0.00 | 0.00 | 61 | 1016.9 |
| 20260902093054 | 28 | 283 | 0.0 | 4.8 | 0.00 | 0.00 | 0.00 | 61 | 1016.9 |
| 20260902092549 | 28 | 283 | 0.0 | 4.8 | 0.00 | 0.00 | 0.00 | 61 | 1016.9 |
| 20260902092044 | 28 | 246 | 0.0 | 1.6 | 0.00 | 0.00 | 0.00 | 60 | 1016.9 |
| 20260902091534 | 28 | 307 | 3.2 | 4.8 | 0.00 | 0.00 | 0.00 | 60 | 1017.0 |
| 20260902091030 | 28 | 70 | 3.2 | 4.8 | 0.00 | 0.00 | 0.00 | 60 | 1017.1 |
| 20260902090526 | 28 | 18 | 1.6 | 3.2 | 0.00 | 0.00 | 0.00 | 60 | 1016.8 |
| 20260902090024 | 28 | 24 | 3.2 | 9.7 | 0.00 | 0.00 | 0.00 | 59 | 1016.9 |
| 20260902085518 | 28 | 57 | 4.8 | 6.4 | 0.00 | 0.00 | 0.00 | 59 | 1016.7 |
| 20260902085014 | 28 | 165 | 4.8 | 6.4 | 0.00 | 0.00 | 0.00 | 59 | 1016.8 |
| 20260902084510 | 28 | 327 | 0.0 | 3.2 | 0.00 | 0.00 | 0.00 | 59 | 1016.7 |
| 20260902084006 | 28 | 231 | 3.2 | 6.4 | 0.00 | 0.00 | 0.00 | 58 | 1016.9 |
| 20260902083501 | 28 | 242 | 3.2 | 4.8 | 0.00 | 0.00 | 0.00 | 58 | 1017.1 |
| 20260902082955 | 28 | 285 | 3.2 | 6.4 | 0.00 | 0.00 | 0.00 | 57 | 1016.8 |
| 20260902082450 | 28 | 285 | 3.2 | 9.7 | 0.00 | 0.00 | 0.00 | 57 | 1016.9 |
| 20260902081946 | 28 | 343 | 1.6 | 4.8 | 0.00 | 0.00 | 0.00 | 57 | 1016.8 |
| 20260902081443 | 28 | 90 | 1.6 | 4.8 | 0.00 | 0.00 | 0.00 | 57 | 1016.8 |
| 20260902080938 | 28 | 154 | 3.2 | 4.8 | 0.00 | 0.00 | 0.00 | 57 | 1016.9 |
| 20260902080433 | 28 | 40 | 3.2 | 4.8 | 0.00 | 0.00 | 0.00 | 57 | 1016.8 |
| 20260902075933 | 28 | 53 | 1.6 | 3.2 | 0.00 | 0.00 | 0.00 | 56 | 1016.8 |
| 20260902075429 | 28 | 341 | 1.6 | 3.2 | 0.00 | 0.00 | 0.00 | 56 | 1016.9 |
| 20260902074924 | 28 | 10 | 0.0 | 3.2 | 0.00 | 0.00 | 0.00 | 55 | 1016.7 |
| 20260902074420 | 29 | 331 | 0.0 | 3.2 | 0.00 | 0.00 | 0.00 | 55 | 1016.8 |
| 20260902073914 | 28 | 149 | 0.0 | 6.4 | 0.00 | 0.00 | 0.00 | 55 | 1016.9 |
| 20260902073411 | 28 | 54 | 0.0 | 4.8 | 0.00 | 0.00 | 0.00 | 55 | 1016.8 |
| 20260902072906 | 28 | 280 | 1.6 | 3.2 | 0.00 | 0.00 | 0.00 | 55 | 1016.8 |
| 20260902072403 | 28 | 316 | 1.6 | 4.8 | 0.00 | 0.00 | 0.00 | 55 | 1016.7 |
| 20260902071859 | 29 | 256 | 0.0 | 4.8 | 0.00 | 0.00 | 0.00 | 55 | 1016.7 |
| 20260902071358 | 29 | 334 | 0.0 | 1.6 | 0.00 | 0.00 | 0.00 | 54 | 1016.8 |
| 20260902070855 | 29 | 51 | 0.0 | 9.7 | 0.00 | 0.00 | 0.00 | 54 | 1016.7 |
| 20260902070350 | 29 | 166 | 3.2 | 4.8 | 0.00 | 0.00 | 0.00 | 54 | 1017.0 |
| 20260902065848 | 29 | 11 | 1.6 | 3.2 | 0.00 | 0.00 | 0.00 | 54 | 1016.9 |
| 20260902065343 | 29 | 347 | 0.0 | 3.2 | 0.00 | 0.00 | 0.00 | 54 | 1016.9 |
| 20260902064833 | 29 | 155 | 1.6 | 1.6 | 0.00 | 0.00 | 0.00 | 54 | 1016.9 |
| 20260902064330 | 29 | 324 | 0.0 | 1.6 | 0.00 | 0.00 | 0.00 | 53 | 1016.8 |
| 20260902063824 | 29 | 244 | 1.6 | 3.2 | 0.00 | 0.00 | 0.00 | 53 | 1016.9 |
| 20260902063318 | 29 | 237 | 4.8 | 4.8 | 0.00 | 0.00 | 0.00 | 53 | 1016.8 |
| 20260902062813 | 29 | 172 | 0.0 | 1.6 | 0.00 | 0.00 | 0.00 | 53 | 1016.8 |
| 20260902062308 | 30 | 54 | 0.0 | 3.2 | 0.00 | 0.00 | 0.00 | 53 | 1016.8 |
| 20260902061808 | 30 | 329 | 1.6 | 3.2 | 0.00 | 0.00 | 0.00 | 53 | 1016.9 |
| 20260902061303 | 29 | 119 | 1.6 | 3.2 | 0.00 | 0.00 | 0.00 | 53 | 1017.0 |
| 20260902060800 | 29 | 125 | 0.0 | 3.2 | 0.00 | 0.00 | 0.00 | 53 | 1016.8 |
| 20260902060255 | 30 | 134 | 0.0 | 1.6 | 0.00 | 0.00 | 0.00 | 53 | 1017.0 |
| 20260902055750 | 30 | 134 | 1.6 | 3.2 | 0.00 | 0.00 | 0.00 | 52 | 1016.9 |
| 20260902055247 | 30 | 99 | 0.0 | 1.6 | 0.00 | 0.00 | 0.00 | 52 | 1016.7 |
| 20260902054747 | 30 | 99 | 1.6 | 1.6 | 0.00 | 0.00 | 0.00 | 52 | 1016.7 |
| 20260902054243 | 30 | 99 | 1.6 | 1.6 | 0.00 | 0.00 | 0.00 | 51 | 1016.9 |
| 20260902053737 | 30 | 98 | 0.0 | 3.2 | 0.00 | 0.00 | 0.00 | 51 | 1016.7 |
| 20260902053236 | 30 | 98 | 0.0 | 1.6 | 0.00 | 0.00 | 0.00 | 50 | 1016.7 |
| 20260902052731 | 30 | 98 | 0.0 | 6.4 | 0.00 | 0.00 | 0.00 | 50 | 1016.5 |
| 20260902052227 | 30 | 309 | 1.6 | 3.2 | 0.00 | 0.00 | 0.00 | 49 | 1016.4 |
| 20260902051726 | 30 | 172 | 1.6 | 1.6 | 0.00 | 0.00 | 0.00 | 50 | 1016.5 |
| 20260902051220 | 30 | 136 | 0.0 | 3.2 | 0.00 | 0.00 | 0.00 | 49 | 1016.4 |
| 20260902050715 | 30 | 159 | 0.0 | 1.6 | 0.00 | 0.00 | 0.00 | 49 | 1016.4 |
| 20260902050210 | 30 | 283 | 3.2 | 4.8 | 0.00 | 0.00 | 0.00 | 49 | 1016.5 |
| 20260902045705 | 31 | 117 | 1.6 | 1.6 | 0.00 | 0.00 | 0.00 | 48 | 1016.5 |
| 20260902045201 | 31 | 257 | 3.2 | 4.8 | 0.00 | 0.00 | 0.00 | 48 | 1016.5 |
| 20260902044656 | 31 | 18 | 1.6 | 4.8 | 0.00 | 0.00 | 0.00 | 48 | 1016.5 |
| 20260902044152 | 30 | 274 | 3.2 | 4.8 | 0.00 | 0.00 | 0.00 | 48 | 1016.5 |
| 20260902043646 | 31 | 2 | 0.0 | 1.6 | 0.00 | 0.00 | 0.00 | 48 | 1016.8 |
| 20260902043142 | 31 | 137 | 3.2 | 6.4 | 0.00 | 0.00 | 0.00 | 48 | 1016.9 |
| 20260902042636 | 31 | 223 | 3.2 | 4.8 | 0.00 | 0.00 | 0.00 | 48 | 1016.8 |
| 20260902042131 | 31 | 172 | 0.0 | 4.8 | 0.00 | 0.00 | 0.00 | 48 | 1016.6 |
| 20260902041631 | 31 | 291 | 3.2 | 4.8 | 0.00 | 0.00 | 0.00 | 48 | 1016.7 |
| 20260902041126 | 31 | 264 | 0.0 | 1.6 | 0.00 | 0.00 | 0.00 | 49 | 1016.7 |
| 20260902040625 | 31 | 181 | 1.6 | 3.2 | 0.00 | 0.00 | 0.00 | 48 | 1016.7 |
| 20260902040120 | 31 | 155 | 3.2 | 3.2 | 0.00 | 0.00 | 0.00 | 48 | 1016.7 |
| 20260902035618 | 31 | 314 | 0.0 | 3.2 | 0.00 | 0.00 | 0.00 | 48 | 1016.8 |
| 20260902035114 | 31 | 151 | 1.6 | 3.2 | 0.00 | 0.00 | 0.00 | 48 | 1016.7 |
| 20260902034613 | 31 | 156 | 0.0 | 1.6 | 0.00 | 0.00 | 0.00 | 48 | 1016.6 |
| 20260902034107 | 31 | 207 | 1.6 | 3.2 | 0.00 | 0.00 | 0.00 | 48 | 1016.7 |
| 20260902033606 | 31 | 51 | 1.6 | 1.6 | 0.00 | 0.00 | 0.00 | 47 | 1016.6 |
| 20260902033101 | 31 | 249 | 0.0 | 3.2 | 0.00 | 0.00 | 0.00 | 47 | 1016.5 |
| 20260902032600 | 31 | 350 | 0.0 | 4.8 | 0.00 | 0.00 | 0.00 | 47 | 1016.4 |
| 20260902032055 | 31 | 185 | 1.6 | 3.2 | 0.00 | 0.00 | 0.00 | 46 | 1016.5 |
| 20260902031549 | 31 | 21 | 0.0 | 1.6 | 0.00 | 0.00 | 0.00 | 47 | 1016.2 |
| 20260902031046 | 31 | 132 | 0.0 | 3.2 | 0.00 | 0.00 | 0.00 | 46 | 1016.3 |
| 20260902030545 | 31 | 116 | 0.0 | 3.2 | 0.00 | 0.00 | 0.00 | 46 | 1015.9 |
| 20260902030040 | 32 | 108 | 0.0 | 1.6 | 0.00 | 0.00 | 0.00 | 46 | 1016.3 |
| 20260902025540 | 32 | 107 | 1.6 | 3.2 | 0.00 | 0.00 | 0.00 | 45 | 1016.1 |
| 20260902025035 | 32 | 107 | 0.0 | 1.6 | 0.00 | 0.00 | 0.00 | 45 | 1015.8 |
| 20260902024531 | 32 | 279 | 0.0 | 4.8 | 0.00 | 0.00 | 0.00 | 45 | 1015.8 |
| 20260902024030 | 32 | 186 | 1.6 | 1.6 | 0.00 | 0.00 | 0.00 | 44 | 1015.7 |
| 20260902023526 | 32 | 187 | 0.0 | 3.2 | 0.00 | 0.00 | 0.00 | 44 | 1015.5 |
| 20260902023021 | 32 | 331 | 0.0 | 1.6 | 0.00 | 0.00 | 0.00 | 44 | 1015.6 |
| 20260902022515 | 32 | 296 | 0.0 | 3.2 | 0.00 | 0.00 | 0.00 | 43 | 1015.5 |
| 20260902022011 | 32 | 339 | 0.0 | 0.0 | 0.00 | 0.00 | 0.00 | 43 | 1015.4 |
| 20260902021501 | 33 | 177 | 0.0 | 1.6 | 0.00 | 0.00 | 0.00 | 42 | 1015.2 |
| 20260902020956 | 33 | 200 | 0.0 | 3.2 | 0.00 | 0.00 | 0.00 | 42 | 1015.3 |
| 20260902020452 | 33 | 246 | 1.6 | 3.2 | 0.00 | 0.00 | 0.00 | 42 | 1015.3 |
| 20260902015948 | 33 | 24 | 0.0 | 1.6 | 0.00 | 0.00 | 0.00 | 41 | 1015.3 |
| 20260902015443 | 33 | 63 | 1.6 | 3.2 | 0.00 | 0.00 | 0.00 | 41 | 1015.0 |
| 20260902014938 | 33 | 44 | 0.0 | 0.0 | 0.00 | 0.00 | 0.00 | 41 | 1015.2 |
| 20260902014435 | 33 | 101 | 1.6 | 3.2 | 0.00 | 0.00 | 0.00 | 40 | 1015.2 |
| 20260902013934 | 33 | 9 | 0.0 | 1.6 | 0.00 | 0.00 | 0.00 | 40 | 1015.2 |
| 20260902013430 | 33 | 0 | 0.0 | 1.6 | 0.00 | 0.00 | 0.00 | 39 | 1015.0 |
| 20260902012925 | 33 | 19 | 0.0 | 3.2 | 0.00 | 0.00 | 0.00 | 39 | 1014.9 |
| 20260902012420 | 34 | 37 | 0.0 | 1.6 | 0.00 | 0.00 | 0.00 | 38 | 1014.9 |
| 20260902011916 | 34 | 64 | 1.6 | 1.6 | 0.00 | 0.00 | 0.00 | 38 | 1014.8 |
| 20260902011410 | 34 | 354 | 0.0 | 3.2 | 0.00 | 0.00 | 0.00 | 37 | 1014.8 |
| 20260902010910 | 34 | 298 | 0.0 | 6.4 | 0.00 | 0.00 | 0.00 | 36 | 1015.0 |
| 20260902010405 | 35 | 98 | 0.0 | 4.8 | 0.00 | 0.00 | 0.00 | 36 | 1014.9 |
| 20260902005905 | 35 | 287 | 0.0 | 6.4 | 0.00 | 0.00 | 0.00 | 35 | 1014.8 |
| 20260902005404 | 35 | 63 | 0.0 | 3.2 | 0.00 | 0.00 | 0.00 | 35 | 1014.8 |
| 20260902004900 | 35 | 47 | 3.2 | 4.8 | 0.00 | 0.00 | 0.00 | 35 | 1014.8 |
| 20260902004359 | 35 | 335 | 0.0 | 1.6 | 0.00 | 0.00 | 0.00 | 34 | 1014.6 |
| 20260902003849 | 35 | 72 | 3.2 | 6.4 | 0.00 | 0.00 | 0.00 | 34 | 1014.7 |
| 20260902003344 | 35 | 335 | 0.0 | 0.0 | 0.00 | 0.00 | 0.00 | 35 | 1014.8 |
| 20260902002840 | 35 | 284 | 1.6 | 4.8 | 0.00 | 0.00 | 0.00 | 34 | 1014.9 |
| 20260902002339 | 35 | 246 | 1.6 | 4.8 | 0.00 | 0.00 | 0.00 | 34 | 1014.8 |
| 20260902001835 | 36 | 64 | 0.0 | 1.6 | 0.00 | 0.00 | 0.00 | 34 | 1015.0 |
| 20260902001329 | 36 | 62 | 1.6 | 3.2 | 0.00 | 0.00 | 0.00 | 34 | 1015.1 |
| 20260902000824 | 36 | 322 | 0.0 | 11.3 | 0.00 | 0.00 | 0.00 | 33 | 1015.1 |
| 20260902000322 | 36 | 337 | 1.6 | 6.4 | 0.00 | 0.00 | 0.00 | 33 | 1015.0 |
| 20260901235814 | 36 | 292 | 3.2 | 9.7 | 0.00 | 0.00 | 0.00 | 33 | 1014.8 |
| 20260901235308 | 36 | 304 | 4.8 | 11.3 | 0.00 | 0.00 | 0.00 | 32 | 1014.7 |
| 20260901234808 | 36 | 268 | 1.6 | 4.8 | 0.00 | 0.00 | 0.00 | 32 | 1015.1 |
| 20260901234303 | 36 | 326 | 4.8 | 6.4 | 0.00 | 0.00 | 0.00 | 32 | 1015.2 |
| 20260901233758 | 36 | 255 | 3.2 | 6.4 | 0.00 | 0.00 | 0.00 | 33 | 1014.9 |
| 20260901233253 | 36 | 276 | 1.6 | 9.7 | 0.00 | 0.00 | 0.00 | 32 | 1015.1 |
| 20260901232748 | 37 | 58 | 1.6 | 3.2 | 0.00 | 0.00 | 0.00 | 32 | 1015.3 |
| 20260901232243 | 37 | 205 | 3.2 | 4.8 | 0.00 | 0.00 | 0.00 | 31 | 1015.3 |
| 20260901231739 | 37 | 4 | 0.0 | 3.2 | 0.00 | 0.00 | 0.00 | 31 | 1015.3 |
| 20260901231236 | 37 | 290 | 0.0 | 6.4 | 0.00 | 0.00 | 0.00 | 31 | 1015.4 |
| 20260901230732 | 37 | 65 | 3.2 | 6.4 | 0.00 | 0.00 | 0.00 | 31 | 1015.3 |
| 20260901230231 | 37 | 124 | 0.0 | 4.8 | 0.00 | 0.00 | 0.00 | 31 | 1015.1 |
| 20260901225727 | 37 | 153 | 3.2 | 6.4 | 0.00 | 0.00 | 0.00 | 31 | 1015.3 |
| 20260901225221 | 37 | 318 | 3.2 | 4.8 | 0.00 | 0.00 | 0.00 | 32 | 1015.3 |
| 20260901224717 | 37 | 7 | 6.4 | 12.9 | 0.00 | 0.00 | 0.00 | 32 | 1015.4 |
| 20260901224213 | 37 | 267 | 4.8 | 6.4 | 0.00 | 0.00 | 0.00 | 31 | 1015.1 |
| 20260901223709 | 37 | 294 | 3.2 | 4.8 | 0.00 | 0.00 | 0.00 | 31 | 1015.1 |
| 20260901223203 | 37 | 273 | 0.0 | 3.2 | 0.00 | 0.00 | 0.00 | 30 | 1015.1 |
| 20260901222700 | 38 | 68 | 1.6 | 3.2 | 0.00 | 0.00 | 0.00 | 30 | 1015.2 |
| 20260901222155 | 38 | 312 | 0.0 | 4.8 | 0.00 | 0.00 | 0.00 | 30 | 1015.1 |
| 20260901221651 | 38 | 130 | 3.2 | 6.4 | 0.00 | 0.00 | 0.00 | 30 | 1015.0 |
| 20260901221147 | 38 | 270 | 3.2 | 11.3 | 0.00 | 0.00 | 0.00 | 30 | 1015.1 |
| 20260901220646 | 38 | 99 | 1.6 | 4.8 | 0.00 | 0.00 | 0.00 | 30 | 1015.1 |
| 20260901220145 | 38 | 264 | 1.6 | 6.4 | 0.00 | 0.00 | 0.00 | 29 | 1015.2 |
| 20260901215644 | 38 | 294 | 1.6 | 9.7 | 0.00 | 0.00 | 0.00 | 29 | 1015.1 |
| 20260901215139 | 38 | 265 | 3.2 | 4.8 | 0.00 | 0.00 | 0.00 | 30 | 1015.3 |
| 20260901214637 | 37 | 242 | 1.6 | 4.8 | 0.00 | 0.00 | 0.00 | 31 | 1015.3 |
| 20260901214136 | 37 | 42 | 1.6 | 1.6 | 0.00 | 0.00 | 0.00 | 31 | 1015.4 |
| 20260901213630 | 37 | 307 | 1.6 | 9.7 | 0.00 | 0.00 | 0.00 | 30 | 1015.3 |
| 20260901213125 | 39 | 218 | 1.6 | 4.8 | 0.00 | 0.00 | 0.00 | 29 | 1015.6 |
| 20260901212625 | 38 | 238 | 8.0 | 11.3 | 0.00 | 0.00 | 0.00 | 30 | 1015.3 |
| 20260901212121 | 38 | 19 | 1.6 | 6.4 | 0.00 | 0.00 | 0.00 | 30 | 1015.6 |
| 20260901211616 | 39 | 299 | 1.6 | 1.6 | 0.00 | 0.00 | 0.00 | 28 | 1015.8 |
| 20260901211113 | 38 | 136 | 3.2 | 12.9 | 0.00 | 0.00 | 0.00 | 29 | 1015.6 |
| 20260901210608 | 40 | 175 | 1.6 | 3.2 | 0.00 | 0.00 | 0.00 | 28 | 1015.8 |
| 20260901210104 | 40 | 200 | 6.4 | 11.3 | 0.00 | 0.00 | 0.00 | 27 | 1015.8 |
| 20260901205559 | 39 | 113 | 3.2 | 4.8 | 0.00 | 0.00 | 0.00 | 28 | 1015.8 |
| 20260901205053 | 40 | 180 | 4.8 | 11.3 | 0.00 | 0.00 | 0.00 | 28 | 1015.8 |
| 20260901204549 | 39 | 182 | 4.8 | 9.7 | 0.00 | 0.00 | 0.00 | 29 | 1015.9 |
| 20260901204044 | 39 | 206 | 0.0 | 3.2 | 0.00 | 0.00 | 0.00 | 28 | 1016.2 |
| 20260901203538 | 38 | 37 | 3.2 | 12.9 | 0.00 | 0.00 | 0.00 | 29 | 1016.4 |
| 20260901203033 | 38 | 269 | 4.8 | 11.3 | 0.00 | 0.00 | 0.00 | 28 | 1016.3 |
| 20260901202528 | 37 | 153 | 3.2 | 3.2 | 0.00 | 0.00 | 0.00 | 29 | 1016.3 |
| 20260901202024 | 38 | 270 | 6.4 | 11.3 | 0.00 | 0.00 | 0.00 | 28 | 1016.5 |
| 20260901201519 | 37 | 261 | 3.2 | 9.7 | 0.00 | 0.00 | 0.00 | 29 | 1016.7 |
| 20260901201014 | 37 | 301 | 0.0 | 3.2 | 0.00 | 0.00 | 0.00 | 28 | 1016.7 |
| 20260901200508 | 38 | 240 | 3.2 | 14.5 | 0.00 | 0.00 | 0.00 | 28 | 1016.7 |
| 20260901200003 | 38 | 320 | 3.2 | 6.4 | 0.00 | 0.00 | 0.00 | 28 | 1016.9 |
| 20260901195501 | 38 | 320 | 3.2 | 6.4 | 0.00 | 0.00 | 0.00 | 28 | 1016.9 |
| 20260901195000 | 38 | 137 | 3.2 | 16.1 | 0.00 | 0.00 | 0.00 | 28 | 1016.9 |
| 20260901194455 | 38 | 64 | 1.6 | 11.3 | 0.00 | 0.00 | 0.00 | 28 | 1016.9 |
| 20260901193951 | 38 | 223 | 3.2 | 9.7 | 0.00 | 0.00 | 0.00 | 27 | 1016.8 |
| 20260901193450 | 38 | 63 | 1.6 | 4.8 | 0.00 | 0.00 | 0.00 | 29 | 1016.9 |
| 20260901192950 | 38 | 50 | 1.6 | 6.4 | 0.00 | 0.00 | 0.00 | 29 | 1016.9 |
| 20260901192446 | 37 | 151 | 1.6 | 6.4 | 0.00 | 0.00 | 0.00 | 29 | 1017.2 |
| 20260901191942 | 39 | 301 | 3.2 | 6.4 | 0.00 | 0.00 | 0.00 | 27 | 1017.3 |
| 20260901191437 | 38 | 18 | 1.6 | 9.7 | 0.00 | 0.00 | 0.00 | 29 | 1017.2 |
| 20260901190933 | 38 | 178 | 1.6 | 9.7 | 0.00 | 0.00 | 0.00 | 28 | 1017.2 |
| 20260901190433 | 37 | 28 | 3.2 | 4.8 | 0.00 | 0.00 | 0.00 | 31 | 1017.3 |
| 20260901185931 | 36 | 170 | 3.2 | 4.8 | 0.00 | 0.00 | 0.00 | 30 | 1017.4 |
| 20260901185426 | 37 | 84 | 6.4 | 6.4 | 0.00 | 0.00 | 0.00 | 30 | 1017.4 |
| 20260901184926 | 37 | 44 | 3.2 | 16.1 | 0.00 | 0.00 | 0.00 | 28 | 1017.6 |
| 20260901184421 | 38 | 17 | 4.8 | 9.7 | 0.00 | 0.00 | 0.00 | 29 | 1017.6 |
| 20260901183916 | 37 | 221 | 3.2 | 6.4 | 0.00 | 0.00 | 0.00 | 30 | 1017.9 |
| 20260901183416 | 37 | 265 | 3.2 | 11.3 | 0.00 | 0.00 | 0.00 | 30 | 1017.8 |
| 20260901182912 | 37 | 295 | 3.2 | 3.2 | 0.00 | 0.00 | 0.00 | 30 | 1017.7 |
| 20260901182407 | 36 | 256 | 3.2 | 16.1 | 0.00 | 0.00 | 0.00 | 33 | 1017.9 |
| 20260901181902 | 37 | 277 | 3.2 | 4.8 | 0.00 | 0.00 | 0.00 | 31 | 1018.0 |
| 20260901181356 | 37 | 210 | 6.4 | 9.7 | 0.00 | 0.00 | 0.00 | 30 | 1017.8 |
| 20260901180855 | 37 | 89 | 3.2 | 11.3 | 0.00 | 0.00 | 0.00 | 31 | 1018.1 |
| 20260901180354 | 37 | 219 | 8.0 | 12.9 | 0.00 | 0.00 | 0.00 | 32 | 1018.2 |
| 20260901175853 | 37 | 210 | 1.6 | 9.7 | 0.00 | 0.00 | 0.00 | 33 | 1018.0 |
| 20260901175348 | 36 | 268 | 0.0 | 11.3 | 0.00 | 0.00 | 0.00 | 34 | 1018.2 |
| 20260901174843 | 37 | 69 | 1.6 | 4.8 | 0.00 | 0.00 | 0.00 | 33 | 1018.2 |
| 20260901174333 | 38 | 318 | 1.6 | 3.2 | 0.00 | 0.00 | 0.00 | 32 | 1018.1 |
| 20260901173829 | 37 | 355 | 1.6 | 11.3 | 0.00 | 0.00 | 0.00 | 34 | 1018.3 |
| 20260901173324 | 37 | 271 | 0.0 | 9.7 | 0.00 | 0.00 | 0.00 | 35 | 1018.6 |
| 20260901172821 | 36 | 295 | 1.6 | 11.3 | 0.00 | 0.00 | 0.00 | 34 | 1018.4 |
| 20260901172319 | 36 | 76 | 4.8 | 9.7 | 0.00 | 0.00 | 0.00 | 34 | 1018.6 |
| 20260901171817 | 36 | 199 | 3.2 | 9.7 | 0.00 | 0.00 | 0.00 | 34 | 1018.6 |
| 20260901171317 | 36 | 315 | 3.2 | 11.3 | 0.00 | 0.00 | 0.00 | 34 | 1018.5 |
| 20260901170816 | 36 | 306 | 1.6 | 9.7 | 0.00 | 0.00 | 0.00 | 36 | 1018.7 |
| 20260901170316 | 36 | 247 | 1.6 | 6.4 | 0.00 | 0.00 | 0.00 | 36 | 1018.7 |
| 20260901165815 | 36 | 246 | 3.2 | 9.7 | 0.00 | 0.00 | 0.00 | 35 | 1018.8 |
| 20260901165310 | 36 | 316 | 6.4 | 12.9 | 0.00 | 0.00 | 0.00 | 36 | 1018.8 |
| 20260901164807 | 36 | 191 | 4.8 | 6.4 | 0.00 | 0.00 | 0.00 | 36 | 1018.8 |
| 20260901164301 | 36 | 269 | 3.2 | 6.4 | 0.00 | 0.00 | 0.00 | 38 | 1018.8 |
| 20260901163756 | 36 | 126 | 8.0 | 11.3 | 0.00 | 0.00 | 0.00 | 37 | 1018.9 |
| 20260901163256 | 35 | 188 | 3.2 | 6.4 | 0.00 | 0.00 | 0.00 | 38 | 1018.8 |
| 20260901162751 | 35 | 230 | 9.7 | 12.9 | 0.00 | 0.00 | 0.00 | 38 | 1018.7 |
| 20260901162251 | 35 | 278 | 1.6 | 11.3 | 0.00 | 0.00 | 0.00 | 38 | 1019.0 |